User: anonymous   Login
Location: Oroua River
(40.4333°S, 175.4333°E)
Time: 03:28:13
(UTC+00:00)
Language:

Cosmos 1707 - Orbit

View from above orbital plane
View from above orbital plane
View from above satellite
View from above satellite

Ground track
Ground track

The orbit data is extracted from the following two-line orbital elements,

1 16326U 85113A   23146.95458938  .00004796  00000-0  21859-3 0  9997
2 16326  82.5082 231.6808 0008256   2.5001 357.6273 15.20400519 45810
Epoch (UTC): 26 May 2023 22:54:36
Eccentricity: 0.0008256
inclination: 82.5082°
perigee height: 499 km
apogee height: 510 km
right ascension of ascending node: 231.6808°
argument of perigee: 2.5001°
revolutions per day: 15.20400519
mean anomaly at epoch: 357.6273°
orbit number at epoch: 4581

The dashed part of the orbit path shows where the satellite is in the earth's shadow,  

DLR